FDX152 KATL-KBOS

Flight info

Callsign FDX152
Flight time 2h 6m
Altitude 35000
Route PLMMR3 BURGG Q22 RBV Q419 JFK ROBUC3
Aircraft B77L/H-SDE1E2E3FGHIJ2J3J4J5M1RWXY/LB1D1

Departure

Time 2026-05-04 22:09
Airport Hartsfield Jackson Atlanta International Airport (KATL)

Arrival

Time 2026-05-05 00:15
Airport Boston Logan International Airport (KBOS)
Time Latitude Longitude Altitude Speed Heading
2026-05-04 21:53 33.65470 -84.41605 1011 ft 0 kts 32°
2026-05-04 22:00 33.65468 -84.41606 1011 ft 1 kts 32°
2026-05-04 22:00 33.65462 -84.41611 1011 ft 1 kts 32°
2026-05-04 22:00 33.65453 -84.41618 1011 ft 2 kts 32°
2026-05-04 22:01 33.65443 -84.41625 1011 ft 2 kts 32°
2026-05-04 22:01 33.65434 -84.41632 1011 ft 2 kts 32°
2026-05-04 22:01 33.65424 -84.41640 1011 ft 2 kts 19°
2026-05-04 22:01 33.65413 -84.41642 1011 ft 2 kts 335°
2026-05-04 22:02 33.65404 -84.41634 1011 ft 2 kts 289°
2026-05-04 22:02 33.65403 -84.41629 1011 ft 0 kts 274°
2026-05-04 22:02 33.65403 -84.41631 1011 ft 1 kts 275°
2026-05-04 22:02 33.65414 -84.41674 1011 ft 14 kts 290°
2026-05-04 22:03 33.65371 -84.41810 1011 ft 21 kts 208°
2026-05-04 22:03 33.65233 -84.41879 1011 ft 21 kts 192°
2026-05-04 22:03 33.65151 -84.41883 1011 ft 0 kts 179°
2026-05-04 22:04 33.65139 -84.41883 1011 ft 9 kts 180°
2026-05-04 22:04 33.65067 -84.41841 1011 ft 13 kts 108°
2026-05-04 22:04 33.65065 -84.41737 1010 ft 13 kts 87°
2026-05-04 22:04 33.65068 -84.41633 1010 ft 13 kts 89°
2026-05-04 22:05 33.65083 -84.41530 1010 ft 13 kts 73°
2026-05-04 22:05 33.65114 -84.41432 1011 ft 13 kts 81°
2026-05-04 22:05 33.65121 -84.41327 1011 ft 13 kts 90°
2026-05-04 22:05 33.65119 -84.41222 1010 ft 13 kts 90°
2026-05-04 22:06 33.65119 -84.41109 1011 ft 14 kts 90°
2026-05-04 22:06 33.65104 -84.40983 1011 ft 16 kts 128°
2026-05-04 22:06 33.64991 -84.40961 1011 ft 18 kts 178°
2026-05-04 22:06 33.64865 -84.40941 1010 ft 19 kts 140°
2026-05-04 22:07 33.64846 -84.40787 1011 ft 20 kts 90°
2026-05-04 22:07 33.64841 -84.40613 1011 ft 20 kts 108°
2026-05-04 22:07 33.64722 -84.40567 1009 ft 9 kts 177°
2026-05-04 22:07 33.64680 -84.40616 1008 ft 10 kts 254°
2026-05-04 22:08 33.64679 -84.40776 1009 ft 41 kts 270°
2026-05-04 22:08 33.64678 -84.41397 1014 ft 107 kts 270°
2026-05-04 22:08 33.64676 -84.42549 1010 ft 162 kts 270°
2026-05-04 22:08 33.64680 -84.43994 1407 ft 171 kts 268°
2026-05-04 22:09 33.64672 -84.45442 1984 ft 177 kts 269°
2026-05-04 22:09 33.64965 -84.46932 2433 ft 191 kts 295°
2026-05-04 22:09 33.65578 -84.48365 2918 ft 201 kts 292°
2026-05-04 22:09 33.66178 -84.49953 3117 ft 224 kts 292°
2026-05-04 22:10 33.66855 -84.51752 3387 ft 248 kts 292°
2026-05-04 22:10 33.67591 -84.53697 3920 ft 262 kts 291°
2026-05-04 22:10 33.68361 -84.55705 4653 ft 267 kts 295°
2026-05-04 22:10 33.69552 -84.57439 5270 ft 278 kts 325°
2026-05-04 22:11 33.71375 -84.58172 6101 ft 281 kts 355°
2026-05-04 22:11 33.73337 -84.58194 6767 ft 286 kts 359°
2026-05-04 22:11 33.75341 -84.58166 7475 ft 290 kts 359°
2026-05-04 22:11 33.77350 -84.58098 8197 ft 292 kts
2026-05-04 22:12 33.79274 -84.57277 8754 ft 300 kts 36°
2026-05-04 22:12 33.80662 -84.55425 9483 ft 301 kts 65°
2026-05-04 22:12 33.81212 -84.53022 10166 ft 299 kts 89°
2026-05-04 22:12 33.81257 -84.50480 10475 ft 314 kts 92°
2026-05-04 22:13 33.81256 -84.47757 10658 ft 338 kts 92°
2026-05-04 22:13 33.81252 -84.44828 10830 ft 362 kts 91°
2026-05-04 22:13 33.81257 -84.41730 11193 ft 378 kts 91°
2026-05-04 22:13 33.81274 -84.38521 11759 ft 388 kts 91°
2026-05-04 22:14 33.81296 -84.35252 12444 ft 394 kts 90°
2026-05-04 22:14 33.81475 -84.31948 13120 ft 399 kts 82°
2026-05-04 22:14 33.82007 -84.28650 13826 ft 405 kts 77°
2026-05-04 22:14 33.82677 -84.25348 14513 ft 409 kts 76°
2026-05-04 22:15 33.83371 -84.22012 15146 ft 414 kts 76°
2026-05-04 22:15 33.84051 -84.18617 15777 ft 419 kts 77°
2026-05-04 22:15 33.84708 -84.15183 16408 ft 425 kts 77°
2026-05-04 22:15 33.85351 -84.11699 17044 ft 430 kts 77°
2026-05-04 22:16 33.85989 -84.08167 17679 ft 435 kts 78°
2026-05-04 22:16 33.86631 -84.04589 18301 ft 440 kts 78°
2026-05-04 22:16 33.87277 -84.00970 18838 ft 445 kts 78°
2026-05-04 22:16 33.87932 -83.97310 19403 ft 449 kts 78°
2026-05-04 22:17 33.88591 -83.93628 19969 ft 453 kts 77°
2026-05-04 22:17 33.89275 -83.89904 20522 ft 456 kts 75°
2026-05-04 22:17 33.90293 -83.86297 20984 ft 461 kts 66°
2026-05-04 22:17 33.91627 -83.82759 21508 ft 465 kts 63°
2026-05-04 22:18 33.92996 -83.79215 22098 ft 469 kts 64°
2026-05-04 22:18 33.94304 -83.75599 22663 ft 473 kts 65°
2026-05-04 22:18 33.95629 -83.71963 23195 ft 474 kts 60°
2026-05-04 22:18 33.97387 -83.68594 23626 ft 478 kts 51°
2026-05-04 22:19 33.99414 -83.65418 24064 ft 481 kts 49°
2026-05-04 22:19 34.01503 -83.62244 24578 ft 483 kts 49°
2026-05-04 22:19 34.03578 -83.59055 25094 ft 485 kts 49°
2026-05-04 22:19 34.05641 -83.55814 25614 ft 488 kts 50°
2026-05-04 22:20 34.07684 -83.52536 26076 ft 492 kts 50°
2026-05-04 22:20 34.09736 -83.49197 26508 ft 496 kts 51°
2026-05-04 22:20 34.11793 -83.45826 26955 ft 500 kts 51°
2026-05-04 22:20 34.13852 -83.42442 27401 ft 504 kts 51°
2026-05-04 22:21 34.15933 -83.39021 27856 ft 507 kts 51°
2026-05-04 22:21 34.18004 -83.35619 28317 ft 510 kts 51°
2026-05-04 22:21 34.20111 -83.32157 28759 ft 513 kts 51°
2026-05-04 22:21 34.22231 -83.28673 29183 ft 517 kts 51°
2026-05-04 22:22 34.24366 -83.25162 29589 ft 520 kts 51°
2026-05-04 22:22 34.26514 -83.21623 30080 ft 521 kts 51°
2026-05-04 22:22 34.28653 -83.18096 30595 ft 519 kts 51°
2026-05-04 22:22 34.30784 -83.14581 31145 ft 517 kts 50°
2026-05-04 22:23 34.32912 -83.11081 31700 ft 515 kts 50°
2026-05-04 22:23 34.35035 -83.07611 32276 ft 511 kts 50°
2026-05-04 22:23 34.37149 -83.04163 32838 ft 509 kts 50°
2026-05-04 22:23 34.39246 -83.00740 33360 ft 507 kts 50°
2026-05-04 22:24 34.41339 -82.97319 33847 ft 505 kts 50°
2026-05-04 22:24 34.43425 -82.93904 34263 ft 503 kts 50°
2026-05-04 22:24 34.45510 -82.90485 34593 ft 504 kts 50°
2026-05-04 22:24 34.47593 -82.87064 34866 ft 505 kts 50°
2026-05-04 22:25 34.49684 -82.83627 34977 ft 510 kts 50°
2026-05-04 22:25 34.53901 -82.76682 35048 ft 512 kts 50°
2026-05-04 22:26 34.58131 -82.69701 35035 ft 514 kts 50°
2026-05-04 22:26 34.62373 -82.62685 35028 ft 516 kts 50°
2026-05-04 22:27 34.66614 -82.55660 35024 ft 516 kts 50°
2026-05-04 22:27 34.70799 -82.48587 35035 ft 516 kts 51°
2026-05-04 22:28 34.74954 -82.41464 35035 ft 515 kts 51°
2026-05-04 22:28 34.79105 -82.34347 35037 ft 515 kts 51°
2026-05-04 22:29 34.82556 -82.28434 35037 ft 515 kts 51°
2026-05-04 22:29 34.86699 -82.21330 35029 ft 515 kts 51°
2026-05-04 22:30 34.91515 -82.13049 35027 ft 515 kts 51°
2026-05-04 22:30 34.94987 -82.07068 35027 ft 515 kts 51°
2026-05-04 22:31 34.99123 -81.99927 35046 ft 516 kts 51°
2026-05-04 22:31 35.03259 -81.92775 35031 ft 515 kts 51°
2026-05-04 22:32 35.07502 -81.85760 35018 ft 513 kts 48°
2026-05-04 22:32 35.11852 -81.78854 35017 ft 513 kts 48°
2026-05-04 22:33 35.16188 -81.71926 35012 ft 512 kts 49°
2026-05-04 22:33 35.20457 -81.65030 35011 ft 512 kts 49°
2026-05-04 22:34 35.24740 -81.58075 35022 ft 511 kts 49°
2026-05-04 22:34 35.29028 -81.51100 34997 ft 509 kts 49°
2026-05-04 22:35 35.33250 -81.44224 35012 ft 508 kts 49°
2026-05-04 22:35 35.37488 -81.37310 34988 ft 507 kts 49°
2026-05-04 22:36 35.41713 -81.30403 35018 ft 506 kts 49°
2026-05-04 22:36 35.45935 -81.23487 35018 ft 507 kts 49°
2026-05-04 22:37 35.50155 -81.16559 35012 ft 507 kts 49°
2026-05-04 22:37 35.54370 -81.09625 35023 ft 507 kts 49°
2026-05-04 22:38 35.58587 -81.02679 35020 ft 507 kts 49°
2026-05-04 22:38 35.62808 -80.95721 35015 ft 508 kts 49°
2026-05-04 22:39 35.67033 -80.88746 35018 ft 508 kts 49°
2026-05-04 22:39 35.71246 -80.81775 35014 ft 508 kts 49°
2026-05-04 22:40 35.75463 -80.74782 35007 ft 508 kts 50°
2026-05-04 22:40 35.79673 -80.67784 35004 ft 508 kts 50°
2026-05-04 22:41 35.83879 -80.60781 35008 ft 508 kts 50°
2026-05-04 22:41 35.88077 -80.53775 35002 ft 508 kts 49°
2026-05-04 22:42 35.92269 -80.46766 34984 ft 508 kts 50°
2026-05-04 22:42 35.96463 -80.39741 34989 ft 508 kts 50°
2026-05-04 22:43 36.00643 -80.32713 34976 ft 508 kts 50°
2026-05-04 22:43 36.04792 -80.25710 34988 ft 508 kts 50°
2026-05-04 22:44 36.08955 -80.18668 34980 ft 508 kts 50°
2026-05-04 22:44 36.13120 -80.11613 34988 ft 509 kts 50°
2026-05-04 22:45 36.17293 -80.04526 35003 ft 509 kts 50°
2026-05-04 22:45 36.23564 -79.93902 34997 ft 510 kts 49°
2026-05-04 22:46 36.27752 -79.86805 34988 ft 510 kts 50°
2026-05-04 22:46 36.31930 -79.79702 35017 ft 510 kts 49°
2026-05-04 22:47 36.36116 -79.72569 34995 ft 512 kts 50°
2026-05-04 22:47 36.40303 -79.65419 34962 ft 512 kts 50°
2026-05-04 22:48 36.44483 -79.58266 34968 ft 512 kts 50°
2026-05-04 22:48 36.48668 -79.51088 34961 ft 513 kts 50°
2026-05-04 22:49 36.52852 -79.43897 34973 ft 513 kts 49°
2026-05-04 22:49 36.57035 -79.36694 34977 ft 514 kts 50°
2026-05-04 22:50 36.61213 -79.29483 34981 ft 514 kts 50°
2026-05-04 22:50 36.65392 -79.22255 34977 ft 514 kts 50°
2026-05-04 22:51 36.69566 -79.15021 34973 ft 514 kts 50°
2026-05-04 22:51 36.73738 -79.07774 35004 ft 514 kts 50°
2026-05-04 22:52 36.77909 -79.00512 34958 ft 515 kts 50°
2026-05-04 22:52 36.82070 -78.93256 34959 ft 514 kts 50°
2026-05-04 22:53 36.86210 -78.85990 34958 ft 513 kts 50°
2026-05-04 22:53 36.90332 -78.78709 34965 ft 513 kts 50°
2026-05-04 22:54 36.94447 -78.71426 35008 ft 513 kts 50°
2026-05-04 22:54 36.98556 -78.64139 34979 ft 512 kts 50°
2026-05-04 22:55 37.02626 -78.56913 34970 ft 511 kts 50°
2026-05-04 22:55 37.06738 -78.49597 34970 ft 510 kts 50°
2026-05-04 22:56 37.10783 -78.42381 34966 ft 510 kts 50°
2026-05-04 22:56 37.14850 -78.35111 34985 ft 509 kts 51°
2026-05-04 22:57 37.18913 -78.27834 34964 ft 508 kts 51°
2026-05-04 22:57 37.22613 -78.20263 34963 ft 510 kts 57°
2026-05-04 22:58 37.26002 -78.12458 34964 ft 509 kts 58°
2026-05-04 22:58 37.29403 -78.04658 34955 ft 508 kts 57°
2026-05-04 22:59 37.32820 -77.96893 34955 ft 508 kts 57°
2026-05-04 22:59 37.36234 -77.89128 34971 ft 507 kts 57°
2026-05-04 23:00 37.39634 -77.81368 34960 ft 506 kts 57°
2026-05-04 23:00 37.43041 -77.73615 34968 ft 505 kts 57°
2026-05-04 23:01 37.46436 -77.65892 34977 ft 505 kts 57°
2026-05-04 23:01 37.49828 -77.58148 34969 ft 504 kts 57°
2026-05-04 23:02 37.53207 -77.50412 34998 ft 504 kts 58°
2026-05-04 23:02 37.56575 -77.42678 34968 ft 503 kts 58°
2026-05-04 23:03 37.59930 -77.34959 34965 ft 501 kts 58°
2026-05-04 23:03 37.63266 -77.27264 34948 ft 499 kts 58°
2026-05-04 23:04 37.66591 -77.19590 34956 ft 498 kts 57°
2026-05-04 23:04 37.68513 -77.15971 34954 ft 492 kts 46°
2026-05-04 23:04 37.70864 -77.12878 34961 ft 487 kts 37°
2026-05-04 23:05 37.76415 -77.08162 34960 ft 479 kts 24°
2026-05-04 23:05 37.82313 -77.04213 34957 ft 481 kts 24°
2026-05-04 23:06 37.88180 -77.00225 34961 ft 483 kts 24°
2026-05-04 23:06 37.94091 -76.96131 34971 ft 484 kts 25°
2026-05-04 23:07 38.00000 -76.92012 34928 ft 485 kts 25°
2026-05-04 23:07 38.05917 -76.87882 34938 ft 485 kts 25°
2026-05-04 23:08 38.11818 -76.83759 34929 ft 484 kts 25°
2026-05-04 23:08 38.17699 -76.79643 34941 ft 484 kts 25°
2026-05-04 23:09 38.23582 -76.75449 34932 ft 485 kts 28°
2026-05-04 23:09 38.28977 -76.70234 34943 ft 489 kts 37°
2026-05-04 23:10 38.34100 -76.64539 34935 ft 489 kts 37°
2026-05-04 23:10 38.39260 -76.58893 34946 ft 488 kts 37°
2026-05-04 23:11 38.44430 -76.53290 34938 ft 487 kts 37°
2026-05-04 23:11 38.49608 -76.47742 34932 ft 487 kts 37°
2026-05-04 23:12 38.54800 -76.42178 34940 ft 487 kts 37°
2026-05-04 23:12 38.59982 -76.36603 34947 ft 487 kts 37°
2026-05-04 23:13 38.65123 -76.31054 34935 ft 487 kts 37°
2026-05-04 23:13 38.70291 -76.25466 34936 ft 486 kts 37°
2026-05-04 23:14 38.75479 -76.19845 34935 ft 486 kts 37°
2026-05-04 23:14 38.80599 -76.14287 34932 ft 485 kts 37°
2026-05-04 23:15 38.85743 -76.08693 34936 ft 485 kts 37°
2026-05-04 23:15 38.90883 -76.03089 34934 ft 484 kts 37°
2026-05-04 23:16 38.96017 -75.97485 34947 ft 484 kts 37°
2026-05-04 23:16 38.99411 -75.93615 34928 ft 485 kts 39°
2026-05-04 23:17 39.03400 -75.88828 34918 ft 485 kts 40°
2026-05-04 23:17 39.08311 -75.82899 34911 ft 484 kts 40°
2026-05-04 23:18 39.13249 -75.76991 34912 ft 484 kts 40°
2026-05-04 23:18 39.18185 -75.71100 34917 ft 483 kts 40°
2026-05-04 23:19 39.23114 -75.65204 34905 ft 483 kts 40°
2026-05-04 23:19 39.28024 -75.59317 34907 ft 482 kts 40°
2026-05-04 23:20 39.32921 -75.53427 34907 ft 481 kts 40°
2026-05-04 23:20 39.37807 -75.47513 34923 ft 481 kts 40°
2026-05-04 23:21 39.42681 -75.41601 34912 ft 480 kts 40°
2026-05-04 23:21 39.47542 -75.35695 34906 ft 479 kts 40°
2026-05-04 23:22 39.51473 -75.30911 34926 ft 478 kts 40°
2026-05-04 23:22 39.54904 -75.26729 34915 ft 478 kts 40°
2026-05-04 23:23 39.59738 -75.20827 34915 ft 477 kts 40°
2026-05-04 23:23 39.64570 -75.14916 34918 ft 477 kts 40°
2026-05-04 23:24 39.69419 -75.09039 34917 ft 475 kts 38°
2026-05-04 23:24 39.74466 -75.03507 34912 ft 475 kts 36°
2026-05-04 23:25 39.79498 -74.97935 34915 ft 475 kts 37°
2026-05-04 23:25 39.84480 -74.92270 34921 ft 476 kts 38°
2026-05-04 23:26 39.89471 -74.86602 34920 ft 476 kts 36°
2026-05-04 23:26 39.94786 -74.81549 34924 ft 472 kts 31°
2026-05-04 23:27 40.00181 -74.76670 34914 ft 472 kts 31°
2026-05-04 23:27 40.05261 -74.71223 34913 ft 476 kts 42°
2026-05-04 23:28 40.09694 -74.64786 34897 ft 477 kts 45°
2026-05-04 23:28 40.14100 -74.58322 34905 ft 476 kts 44°
2026-05-04 23:29 40.18543 -74.51899 34895 ft 476 kts 44°
2026-05-04 23:29 40.23330 -74.46007 34915 ft 470 kts 35°
2026-05-04 23:30 40.28437 -74.40655 34913 ft 470 kts 35°
2026-05-04 23:30 40.33530 -74.35281 34916 ft 470 kts 35°
2026-05-04 23:31 40.38578 -74.29884 34892 ft 470 kts 35°
2026-05-04 23:31 40.43617 -74.24472 34889 ft 469 kts 35°
2026-05-04 23:32 40.48599 -74.19111 34819 ft 453 kts 35°
2026-05-04 23:32 40.51017 -74.16506 34686 ft 445 kts 34°
2026-05-04 23:32 40.53285 -74.13756 34398 ft 446 kts 44°
2026-05-04 23:33 40.55128 -74.10451 34075 ft 451 kts 54°
2026-05-04 23:33 40.56530 -74.06755 33762 ft 454 kts 65°
2026-05-04 23:33 40.57485 -74.02792 33424 ft 454 kts 69°
2026-05-04 23:33 40.58354 -73.98811 33048 ft 452 kts 69°
2026-05-04 23:34 40.59222 -73.94852 32686 ft 449 kts 69°
2026-05-04 23:34 40.60107 -73.90920 32332 ft 447 kts 69°
2026-05-04 23:34 40.61007 -73.87011 31969 ft 446 kts 69°
2026-05-04 23:34 40.61910 -73.83118 31613 ft 444 kts 69°
2026-05-04 23:35 40.62816 -73.79246 31265 ft 439 kts 66°
2026-05-04 23:35 40.64133 -73.75673 30802 ft 430 kts 48°
2026-05-04 23:35 40.66100 -73.72803 30343 ft 422 kts 41°
2026-05-04 23:35 40.68125 -73.69989 29932 ft 423 kts 42°
2026-05-04 23:36 40.70115 -73.67145 29548 ft 422 kts 43°
2026-05-04 23:36 40.72082 -73.64290 29248 ft 419 kts 43°
2026-05-04 23:36 40.74024 -73.61447 28951 ft 416 kts 43°
2026-05-04 23:36 40.75958 -73.58610 28604 ft 415 kts 43°
2026-05-04 23:37 40.77880 -73.55788 28260 ft 413 kts 43°
2026-05-04 23:37 40.79799 -73.52969 27928 ft 412 kts 43°
2026-05-04 23:37 40.81711 -73.50160 27601 ft 411 kts 43°
2026-05-04 23:37 40.83616 -73.47359 27250 ft 408 kts 43°
2026-05-04 23:38 40.85491 -73.44599 26913 ft 405 kts 43°
2026-05-04 23:38 40.87381 -73.41815 26909 ft 407 kts 43°
2026-05-04 23:38 40.89292 -73.39001 26502 ft 412 kts 43°
2026-05-04 23:38 40.91194 -73.36192 26284 ft 408 kts 43°
2026-05-04 23:39 40.93075 -73.33407 26057 ft 404 kts 44°
2026-05-04 23:39 40.94934 -73.30652 25823 ft 400 kts 43°
2026-05-04 23:39 40.96783 -73.27911 25630 ft 398 kts 43°
2026-05-04 23:39 40.98623 -73.25184 25430 ft 396 kts 43°
2026-05-04 23:40 41.00455 -73.22466 25218 ft 396 kts 43°
2026-05-04 23:40 41.02285 -73.19749 25019 ft 395 kts 43°
2026-05-04 23:40 41.04111 -73.17036 24805 ft 395 kts 43°
2026-05-04 23:40 41.05938 -73.14318 24607 ft 395 kts 44°
2026-05-04 23:41 41.07684 -73.11483 24107 ft 403 kts 51°
2026-05-04 23:41 41.09216 -73.08276 23377 ft 424 kts 55°
2026-05-04 23:41 41.10755 -73.04822 23159 ft 444 kts 56°
2026-05-04 23:41 41.12325 -73.01253 22971 ft 450 kts 56°
2026-05-04 23:42 41.13901 -72.97670 22920 ft 449 kts 56°
2026-05-04 23:42 41.15482 -72.94094 22919 ft 450 kts 56°
2026-05-04 23:42 41.17075 -72.90510 22908 ft 451 kts 55°
2026-05-04 23:42 41.18672 -72.86935 22898 ft 451 kts 55°
2026-05-04 23:43 41.20273 -72.83358 22893 ft 450 kts 55°
2026-05-04 23:43 41.21872 -72.79786 22900 ft 450 kts 55°
2026-05-04 23:43 41.23469 -72.76216 22894 ft 450 kts 55°
2026-05-04 23:43 41.25064 -72.72645 22900 ft 449 kts 55°
2026-05-04 23:44 41.26658 -72.69071 22902 ft 449 kts 55°
2026-05-04 23:44 41.28250 -72.65497 22924 ft 449 kts 55°
2026-05-04 23:44 41.29841 -72.61923 22941 ft 450 kts 55°
2026-05-04 23:44 41.31432 -72.58342 22937 ft 450 kts 55°
2026-05-04 23:45 41.33025 -72.54752 22937 ft 450 kts 55°
2026-05-04 23:45 41.34616 -72.51164 22932 ft 451 kts 56°
2026-05-04 23:45 41.36208 -72.47568 22927 ft 451 kts 56°
2026-05-04 23:45 41.37797 -72.43974 22924 ft 451 kts 56°
2026-05-04 23:46 41.39385 -72.40378 22935 ft 451 kts 56°
2026-05-04 23:46 41.40974 -72.36777 22930 ft 451 kts 56°
2026-05-04 23:46 41.42559 -72.33177 22919 ft 451 kts 56°
2026-05-04 23:46 41.44141 -72.29583 22748 ft 447 kts 56°
2026-05-04 23:47 41.45689 -72.26057 22643 ft 435 kts 56°
2026-05-04 23:47 41.47191 -72.22629 22533 ft 421 kts 56°
2026-05-04 23:47 41.48603 -72.19323 22421 ft 410 kts 58°
2026-05-04 23:47 41.49879 -72.15918 22264 ft 401 kts 60°
2026-05-04 23:48 41.51055 -72.12590 22001 ft 394 kts 61°
2026-05-04 23:48 41.52215 -72.09303 21615 ft 390 kts 60°
2026-05-04 23:48 41.53389 -72.06043 21142 ft 390 kts 60°
2026-05-04 23:48 41.54575 -72.02788 20690 ft 389 kts 60°
2026-05-04 23:49 41.55754 -71.99547 20263 ft 388 kts 62°
2026-05-04 23:49 41.56809 -71.96237 19858 ft 387 kts 65°
2026-05-04 23:49 41.57773 -71.92895 19477 ft 385 kts 66°
2026-05-04 23:49 41.58739 -71.89570 19088 ft 383 kts 66°
2026-05-04 23:50 41.59713 -71.86275 18707 ft 380 kts 65°
2026-05-04 23:50 41.60672 -71.83041 18340 ft 379 kts 66°
2026-05-04 23:50 41.61637 -71.79776 17912 ft 377 kts 66°
2026-05-04 23:50 41.62596 -71.76525 17485 ft 375 kts 66°
2026-05-04 23:51 41.63560 -71.73254 17142 ft 371 kts 66°
2026-05-04 23:51 41.64498 -71.70070 16874 ft 367 kts 66°
2026-05-04 23:51 41.65429 -71.66904 16610 ft 366 kts 66°
2026-05-04 23:51 41.66363 -71.63731 16366 ft 368 kts 66°
2026-05-04 23:52 41.67298 -71.60546 16109 ft 367 kts 66°
2026-05-04 23:52 41.68224 -71.57383 15847 ft 362 kts 66°
2026-05-04 23:52 41.69130 -71.54285 15592 ft 355 kts 66°
2026-05-04 23:52 41.70026 -71.51219 15354 ft 352 kts 66°
2026-05-04 23:53 41.70915 -71.48178 15110 ft 350 kts 66°
2026-05-04 23:53 41.71799 -71.45149 14890 ft 348 kts 67°
2026-05-04 23:53 41.72712 -71.42155 14642 ft 346 kts 62°
2026-05-04 23:53 41.73845 -71.39386 14414 ft 344 kts 57°
2026-05-04 23:54 41.75087 -71.36663 14174 ft 342 kts 56°
2026-05-04 23:54 41.76331 -71.33885 13925 ft 342 kts 57°
2026-05-04 23:54 41.77508 -71.31173 13699 ft 342 kts 58°
2026-05-04 23:54 41.78688 -71.28417 13448 ft 341 kts 58°
2026-05-04 23:55 41.79863 -71.25658 13183 ft 340 kts 58°
2026-05-04 23:55 41.81032 -71.22910 12948 ft 339 kts 58°
2026-05-04 23:55 41.83356 -71.17444 12467 ft 336 kts 58°
2026-05-04 23:56 41.84510 -71.14728 12259 ft 334 kts 58°
2026-05-04 23:56 41.85651 -71.12039 12031 ft 328 kts 58°
2026-05-04 23:56 41.86775 -71.09422 11821 ft 320 kts 58°
2026-05-04 23:56 41.87885 -71.06858 11652 ft 317 kts 58°
2026-05-04 23:57 41.88991 -71.04306 11445 ft 314 kts 58°
2026-05-04 23:57 41.90081 -71.01786 11269 ft 311 kts 58°
2026-05-04 23:57 41.91163 -70.99281 11082 ft 309 kts 58°
2026-05-04 23:57 41.92238 -70.96789 10905 ft 307 kts 58°
2026-05-04 23:58 41.93305 -70.94311 10719 ft 306 kts 58°
2026-05-04 23:58 41.94366 -70.91845 10546 ft 305 kts 57°
2026-05-04 23:58 41.95426 -70.89383 10355 ft 304 kts 57°
2026-05-04 23:58 41.96475 -70.86938 10156 ft 300 kts 57°
2026-05-04 23:59 41.97509 -70.84529 9971 ft 297 kts 57°
2026-05-04 23:59 41.98536 -70.82133 9804 ft 295 kts 56°
2026-05-04 23:59 41.99557 -70.79752 9600 ft 294 kts 57°
2026-05-04 23:59 42.00574 -70.77378 9427 ft 292 kts 57°
2026-05-05 00:00 42.01673 -70.75128 9208 ft 285 kts 46°
2026-05-05 00:00 42.02107 -70.74441 9159 ft 283 kts 45°
2026-05-05 00:00 42.04334 -70.71248 8877 ft 283 kts 43°
2026-05-05 00:00 42.05234 -70.69959 8777 ft 286 kts 44°
2026-05-05 00:01 42.06586 -70.67981 8600 ft 288 kts 44°
2026-05-05 00:01 42.07931 -70.65980 8429 ft 289 kts 44°
2026-05-05 00:01 42.09274 -70.63970 8236 ft 289 kts 44°
2026-05-05 00:01 42.10679 -70.62079 8046 ft 281 kts 30°
2026-05-05 00:02 42.12438 -70.61114 7790 ft 269 kts
2026-05-05 00:02 42.14277 -70.60639 7574 ft 271 kts
2026-05-05 00:02 42.16138 -70.60129 7342 ft 275 kts
2026-05-05 00:02 42.18013 -70.59609 7078 ft 275 kts
2026-05-05 00:03 42.19872 -70.59092 6784 ft 270 kts
2026-05-05 00:03 42.21693 -70.58585 6510 ft 265 kts
2026-05-05 00:03 42.23490 -70.58085 6285 ft 263 kts
2026-05-05 00:03 42.25286 -70.57586 6012 ft 264 kts
2026-05-05 00:04 42.27091 -70.57083 5762 ft 266 kts
2026-05-05 00:04 42.28913 -70.56575 5515 ft 268 kts
2026-05-05 00:04 42.30745 -70.56069 5249 ft 266 kts
2026-05-05 00:04 42.32503 -70.56183 5093 ft 245 kts 334°
2026-05-05 00:05 42.33954 -70.57317 5042 ft 241 kts 314°
2026-05-05 00:05 42.35178 -70.58875 5042 ft 244 kts 311°
2026-05-05 00:05 42.36399 -70.60483 5057 ft 244 kts 311°
2026-05-05 00:05 42.37610 -70.62084 5024 ft 242 kts 310°
2026-05-05 00:06 42.38805 -70.63665 5016 ft 240 kts 311°
2026-05-05 00:06 42.39994 -70.65238 5014 ft 238 kts 311°
2026-05-05 00:06 42.41171 -70.66794 4999 ft 236 kts 310°
2026-05-05 00:06 42.42328 -70.68322 5002 ft 235 kts 310°
2026-05-05 00:07 42.43508 -70.69883 5016 ft 240 kts 311°
2026-05-05 00:07 42.44711 -70.71472 5019 ft 243 kts 311°
2026-05-05 00:07 42.45918 -70.73065 5008 ft 242 kts 311°
2026-05-05 00:07 42.47117 -70.74650 4902 ft 240 kts 311°
2026-05-05 00:08 42.48307 -70.76225 4623 ft 239 kts 310°
2026-05-05 00:08 42.49501 -70.77797 4180 ft 240 kts 310°
2026-05-05 00:08 42.50708 -70.79370 3745 ft 242 kts 310°
2026-05-05 00:08 42.51925 -70.80930 3421 ft 237 kts 310°
2026-05-05 00:09 42.53106 -70.82418 3243 ft 226 kts 310°
2026-05-05 00:09 42.54233 -70.83821 3149 ft 214 kts 310°
2026-05-05 00:09 42.55338 -70.85180 3098 ft 215 kts 310°
2026-05-05 00:09 42.56170 -70.86755 3023 ft 200 kts 281°
2026-05-05 00:10 42.56147 -70.88541 3019 ft 194 kts 248°
2026-05-05 00:10 42.55493 -70.90148 3031 ft 197 kts 236°
2026-05-05 00:10 42.54460 -70.91385 3012 ft 202 kts 211°
2026-05-05 00:10 42.53201 -70.92214 3023 ft 201 kts 209°
2026-05-05 00:11 42.51928 -70.92993 3007 ft 200 kts 206°
2026-05-05 00:11 42.50606 -70.93672 2742 ft 205 kts 203°
2026-05-05 00:11 42.49290 -70.94307 2468 ft 195 kts 202°
2026-05-05 00:11 42.48079 -70.94892 2251 ft 173 kts 204°
2026-05-05 00:12 42.47017 -70.95408 2052 ft 154 kts 203°
2026-05-05 00:12 42.46092 -70.95858 1838 ft 128 kts 202°
2026-05-05 00:12 42.45267 -70.96255 1650 ft 126 kts 202°
2026-05-05 00:12 42.44445 -70.96649 1488 ft 124 kts 203°
2026-05-05 00:13 42.43590 -70.97072 1370 ft 136 kts 203°
2026-05-05 00:13 42.42712 -70.97504 1189 ft 133 kts 202°
2026-05-05 00:13 42.41834 -70.97920 960 ft 134 kts 202°
2026-05-05 00:13 42.40950 -70.98355 749 ft 139 kts 202°
2026-05-05 00:14 42.40064 -70.98783 644 ft 132 kts 201°
2026-05-05 00:14 42.39174 -70.99214 466 ft 138 kts 199°
2026-05-05 00:14 42.38282 -70.99644 276 ft 135 kts 199°
2026-05-05 00:14 42.37423 -71.00058 60 ft 124 kts 198°
2026-05-05 00:15 42.36663 -71.00429 30 ft 98 kts 200°
2026-05-05 00:15 42.36187 -71.00658 30 ft 58 kts 199°
2026-05-05 00:15 42.35952 -71.00859 30 ft 21 kts 229°
2026-05-05 00:15 42.35863 -71.01000 30 ft 15 kts 230°
2026-05-05 00:16 42.35835 -71.01128 30 ft 15 kts 278°
2026-05-05 00:16 42.35798 -71.01240 30 ft 15 kts 201°
2026-05-05 00:16 42.35740 -71.01290 30 ft 6 kts 256°
2026-05-05 00:16 42.35751 -71.01343 30 ft 6 kts 290°
2026-05-05 00:17 42.35766 -71.01401 30 ft 8 kts 289°
2026-05-05 00:17 42.35786 -71.01478 30 ft 10 kts 289°
2026-05-05 00:17 42.35812 -71.01577 30 ft 16 kts 286°
2026-05-05 00:17 42.35843 -71.01776 30 ft 18 kts 281°
2026-05-05 00:18 42.35879 -71.01928 30 ft 17 kts 303°
2026-05-05 00:18 42.35880 -71.01996 30 ft 7 kts 236°
2026-05-05 00:18 42.35860 -71.02013 30 ft 0 kts 200°